TimeMST,TemperatureF,Dew PointF,Humidity,Sea Level PressureIn,VisibilityMPH,Wind Direction,Wind SpeedMPH,Gust SpeedMPH,PrecipitationIn,Events,Conditions,WindDirDegrees,DateUTC
12:41 AM,48.2,44.6,87,29.90,10.0,Calm,Calm,-,N/A,,Scattered Clouds,0,2013-02-28 07:41:00
1:40 AM,50.0,46.4,87,29.89,5.0,East,8.1,-,N/A,,Mostly Cloudy,80,2013-02-28 08:40:00
2:41 AM,50.0,46.4,87,29.89,8.0,ENE,6.9,-,N/A,,Mostly Cloudy,70,2013-02-28 09:41:00
3:40 AM,48.2,44.6,87,29.88,8.0,North,6.9,-,N/A,,Mostly Cloudy,350,2013-02-28 10:40:00
4:43 AM,46.4,42.8,87,29.88,8.0,NNE,4.6,-,N/A,,Scattered Clouds,30,2013-02-28 11:43:00
5:40 AM,46.4,42.8,87,29.90,8.0,North,8.1,-,N/A,,Scattered Clouds,10,2013-02-28 12:40:00
6:49 AM,44.6,42.8,93,29.91,5.0,NNE,8.1,-,N/A,,Clear,30,2013-02-28 13:49:00
7:47 AM,53.6,48.2,82,29.95,8.0,North,6.9,-,N/A,,Clear,360,2013-02-28 14:47:00
8:48 AM,60.8,50.0,68,29.95,10.0,NE,3.5,-,N/A,,Clear,40,2013-02-28 15:48:00
9:50 AM,66.2,51.8,60,29.95,10.0,South,8.1,-,N/A,,Clear,170,2013-02-28 16:50:00
10:52 AM,71.6,53.6,53,29.94,10.0,South,6.9,-,N/A,,Clear,190,2013-02-28 17:52:00
11:51 AM,73.4,51.8,47,29.92,10.0,West,10.4,-,N/A,,Clear,270,2013-02-28 18:51:00
12:47 PM,77.0,51.8,41,29.89,10.0,West,10.4,-,N/A,,Clear,260,2013-02-28 19:47:00
1:47 PM,75.2,53.6,47,29.87,12.0,WSW,16.1,-,N/A,,Clear,240,2013-02-28 20:47:00
2:51 PM,73.4,53.6,50,29.85,10.0,SSW,13.8,-,N/A,,Partly Cloudy,210,2013-02-28 21:51:00
3:46 PM,73.4,53.6,50,29.85,10.0,WSW,15.0,-,N/A,,Partly Cloudy,240,2013-02-28 22:46:00
4:46 PM,69.8,50.0,49,29.86,10.0,WSW,12.7,-,N/A,,Partly Cloudy,240,2013-02-28 23:46:00
5:47 PM,66.2,51.8,60,29.87,10.0,West,9.2,-,N/A,,Partly Cloudy,270,2013-03-01 00:47:00
6:51 PM,62.6,51.8,68,29.87,10.0,West,10.4,-,N/A,,Clear,280,2013-03-01 01:51:00
7:46 PM,59.0,50.0,72,29.89,10.0,West,6.9,-,N/A,,Clear,280,2013-03-01 02:46:00
8:44 PM,57.2,48.2,72,29.90,10.0,North,8.1,-,N/A,,Clear,350,2013-03-01 03:44:00
9:49 PM,53.6,46.4,77,29.91,10.0,NW,5.8,-,N/A,,Clear,310,2013-03-01 04:49:00
10:47 PM,51.8,44.6,76,29.94,10.0,NW,5.8,-,N/A,,Scattered Clouds,320,2013-03-01 05:47:00
11:41 PM,50.0,44.6,82,29.91,10.0,NE,8.1,-,N/A,,Scattered Clouds,50,2013-03-01 06:41:00